Location: Miss�
(46.9484°N, 0.1922°W)
Time: 08:13:03
(UTC+00:00)

SL-8 Rocket - Pass Details

Date: 02 March 2021
Orbit: 957 x 991 km, 82.9° (Epoch: 11 April)

Event Time Altitude Azimuth Distance (km) Brightness Sun altitude
Rises 19:25:48 0° 174° (S) 3,670 6.9 -17.5°
Reaches altitude 10° 19:28:21 10° 170° (S) 2,722 6.1 -17.9°
Maximum altitude 19:34:27 60° 93° (E) 1,111 4.0 -18.9°
Drops below altitude 10° 19:40:32 10° 15° (NNE) 2,717 6.3 -19.9°
Sets 19:43:04 0° 12° (NNE) 3,664 7.0 -20.3°
